Regional Weather Roundup
Issued by NWS Kansas City/Pleasant Hill, MO

Home | Current Version | Previous Version | Graphics & Text | Print | Product List | Glossary Off
Versions: 1 2 3 4 5 6 7 8 9 10 11 12 13 14 15 16 17 18 19 20 21 22 23 24 25 26 27 28 29 30 31 32 33 34 35 36 37 38 39 40 41 42 43 44 45 46 47 48 49 50

000
ASUS43 KEAX 011610
RWREAX

WEATHER ROUNDUP FOR EASTERN KANSAS AND NORTHWEST MISSOURI
NATIONAL WEATHER SERVICE KANSAS CITY/PLEASANT HILL MO
1100 AM CDT SAT AUG 01 2015

KSZ040-057-103>105-MOZ028-029-037-043-011700-
...KANSAS CITY METROPOLITAN AREA...

CITY           SKY/WX    TMP DP  RH WIND       PRES   REMARKS
K.C. INTL      PTSUNNY   85  75  72 W3        30.07S HX  93
K.C. DOWNTOWN  PTSUNNY   87  75  67 W9        30.06S HX  96
LEES SUMMIT    MOSUNNY   86  73  65 VRB6      30.08S HX  93
OLATHE - IXD   MOSUNNY   85  74  69 W12       30.09S HX  92
OLATHE - OJC   PTSUNNY   84  73  69 W8        30.08S HX  90
LAWRENCE       SUNNY     85  75  72 W6        30.07F HX  93

$$

MOZ001>008-011>017-020>025-030>033-038>040-044>046-053-054-011700-
...NORTHERN AND CENTRAL MISSOURI...

CITY           SKY/WX    TMP DP  RH WIND       PRES   REMARKS
ST. JOSEPH     SUNNY     84  75  74 W6        30.05F HX  92
MOSBY            N/A     86  70  58 W6        30.06S HX  90
WARRENSBURG    SUNNY     86  72  62 W8        30.06F HX  92
WHITEMAN AFB   MOSUNNY   87  73  62 NW8       30.06S HX  93
CLINTON        SUNNY     86  75  70 SW3       30.09R HX  95
SEDALIA        PTSUNNY   86  73  65 NW5       30.08F HX  93
WARSAW         NOT AVBL
CHILLICOTHE      N/A     84  72  67 CALM      30.06R
KIRKSVILLE     PTSUNNY   80  69  69 VRB7      30.07S

$$

MOZ041-047>049-056>058-063>065-088>090-097-011700-
...EASTERN AND SOUTHERN MISSOURI...

CITY           SKY/WX    TMP DP  RH WIND       PRES   REMARKS
ST. LOUIS INTL PTSUNNY   84  60  44 E7        30.08S
SPIRIT OF STL  MOSUNNY   82  66  58 E6        30.06S
COLUMBIA       PTSUNNY   81  70  69 CALM      30.08S
JEFFERSON CITY MOSUNNY   83  69  62 CALM      30.06S
ROLLA          SUNNY     84  71  65 W6        30.07F
OSAGE BEACH    SUNNY     84  72  65 W5        30.08F
SPRINGFIELD    SUNNY     85  62  46 W7        30.10S
BRANSON        SUNNY     84  64  51 CALM      30.13S
JOPLIN         SUNNY     87  64  46 VRB5      30.10S
WEST PLAINS    SUNNY     86  64  47 NW6       30.11S

$$

IAZ060-094-KSZ022-034>040-054-083-096-NEZ052-066-093-011700-
...KANSAS...SOUTHEAST NEBRASKA AND IOWA...

CITY           SKY/WX    TMP DP  RH WIND       PRES   REMARKS
TOPEKA         SUNNY     85  74  69 W3        30.07F HX  92
MANHATTAN      SUNNY     86  73  65 CALM      30.07F HX  93
EMPORIA        SUNNY     85  70  60 CALM      30.09S
CHANUTE        SUNNY     85  71  63 CALM      30.09S HX  90
WICHITA        MOSUNNY   82  72  71 S7        30.09S
OMAHA          CLOUDY    77  65  66 SW6       30.02F
LINCOLN        CLOUDY    74  60  61 E7        30.03F
FALLS CITY     MOSUNNY   82  72  71 NW12      30.06R
LAMONI         CLOUDY    78  70  76 SW3       30.06S
DES MOINES     CLOUDY    81  67  62 SW8       30.03S

$$



USA.gov is the U.S. government's official web portal to all federal, state and local government web resources and services.